Borger, TX

4:38 AM CDT on October 22, 2017 (GMT -0500)
Hutchinson County

Weather History for KBGD - May, 2013

Change the Weather History Date:

Wednesday, May 22, 2013

  Actual Average Record
Temperature  
Mean Temperature 73 °F 70 °F  
Max Temperature 91 °F 83 °F 100 °F (1996)
Min Temperature 54 °F 57 °F 39 °F (1967)
Degree Days  
Heating Degree Days 0 1  
Month to date heating degree days 79 55  
Since 1 July heating degree days 3592 3758  
Cooling Degree Days 8 6  
Month to date cooling degree days 121 90  
Year to date cooling degree days 167 134  
Growing Degree Days 22 (Base 50)    
Moisture  
Dew Point 43 °F    
Average Humidity 45    
Maximum Humidity 77    
Minimum Humidity 13    
Precipitation  
Precipitation 0.00 in 0.12 in 1.14 in (1975)
Month to date precipitation 0.96 1.74  
Year to date precipitation 4.35 5.90  
Snow  
Snow 0.00 in - T in (1950)
Month to date snowfall T  
Since 1 July snowfall 27.5  
Snow Depth 0.00 in    
Sea Level Pressure  
Sea Level Pressure 29.80 in    
Wind  
Wind Speed 9 mph (South)    
Max Wind Speed 25 mph    
Max Gust Speed 38 mph    
Visibility 10 miles    
Events      
T = Trace of Precipitation, MM = Missing Value Source: NWS Daily Summary

Daily Weather History Graph

Daily Weather History Graph

Search for Another Location

Airport or City:

Trip Planner

Search our weather history database for the weather conditions in past years. The results will help you decide how hot, cold, wet, or windy it might be!

Date:

Astronomy

May. 22, 2013 Rise Set
Actual Time 6:35 AM CDT 8:49 PM CDT
Civil Twilight 6:06 AM CDT 9:18 PM CDT
Nautical Twilight 5:31 AM CDT 9:53 PM CDT
Astronomical Twilight 4:52 AM CDT 10:32 PM CDT
Moon 6:18 PM CDT 4:35 AM CDT
Length of Visible Light 15h 11m
Length of Day
14h 14m
Waxing Gibbous, 91% of the Moon is Illuminated
May 22
Waxing Gibbous
May 24
Full
May 31
Last Quarter
Jun 8
New
Jun 16
First Quarter

Hourly Weather History & Observations

Time (CDT) Temp. Dew Point Humidity Pressure Visibility Wind Dir Wind Speed Gust Speed Precip Events Conditions
12:51 AM 62.1 °F 48.9 °F 62% 29.85 in 10.0 mi WNW 6.9 mph - 0.00 in   Clear
1:51 AM 61.0 °F 48.9 °F 64% 29.84 in 10.0 mi West 4.6 mph - N/A   Clear
2:51 AM 60.1 °F 48.0 °F 64% 29.83 in 10.0 mi SW 4.6 mph - N/A   Clear
3:51 AM 59.0 °F 48.0 °F 67% 29.83 in 10.0 mi West 3.5 mph - N/A   Clear
4:51 AM 55.9 °F 46.0 °F 69% 29.85 in 10.0 mi SW 3.5 mph - N/A   Clear
5:51 AM 54.0 °F 46.0 °F 75% 29.86 in 10.0 mi Calm Calm - N/A   Clear
6:51 AM 54.0 °F 39.0 °F 57% 29.87 in 10.0 mi Calm Calm - N/A   Clear
7:51 AM 55.9 °F 41.0 °F 57% 29.88 in 10.0 mi ENE 4.6 mph - N/A   Clear
8:51 AM 57.9 °F 43.0 °F 58% 29.90 in 10.0 mi Calm Calm - N/A   Clear
9:51 AM 64.9 °F 43.0 °F 45% 29.90 in 10.0 mi Calm Calm - N/A   Clear
10:51 AM 69.1 °F 45.0 °F 42% 29.88 in 10.0 mi SSE 5.8 mph - N/A   Clear
11:51 AM 73.9 °F 46.9 °F 38% 29.87 in 10.0 mi Calm Calm - N/A   Clear
12:51 PM 80.1 °F 46.0 °F 30% 29.84 in 10.0 mi WSW 10.4 mph 19.6 mph N/A   Clear
1:51 PM 82.0 °F 46.0 °F 28% 29.81 in 10.0 mi SE 11.5 mph 19.6 mph N/A   Partly Cloudy
2:51 PM 86.0 °F 41.0 °F 20% 29.78 in 10.0 mi South 15.0 mph 26.5 mph N/A   Clear
3:51 PM 86.0 °F 41.0 °F 20% 29.75 in 10.0 mi South 16.1 mph 24.2 mph N/A   Clear
4:51 PM 89.1 °F 39.0 °F 17% 29.71 in 10.0 mi South 17.3 mph 28.8 mph N/A   Clear
5:51 PM 90.0 °F 39.0 °F 17% 29.70 in 10.0 mi South 9.2 mph 18.4 mph N/A   Clear
6:51 PM 91.0 °F 34.0 °F 13% 29.68 in 10.0 mi SW 10.4 mph - N/A   Clear
7:51 PM 87.1 °F 39.9 °F 19% 29.69 in 10.0 mi SE 11.5 mph 25.3 mph N/A   Clear
8:51 PM 82.0 °F 39.9 °F 22% 29.72 in 10.0 mi SE 12.7 mph - N/A   Clear
9:51 PM 79.0 °F 37.9 °F 23% 29.72 in 10.0 mi SE 17.3 mph 25.3 mph N/A   Clear
10:51 PM 77.0 °F 37.0 °F 24% 29.74 in 10.0 mi SE 19.6 mph 36.8 mph N/A   Clear
11:51 PM 73.9 °F 37.0 °F 26% 29.74 in 10.0 mi SE 23.0 mph 36.8 mph N/A   Clear